Time,TemperatureF,DewpointF,PressureIn,WindDirection,WindDirectionDegrees,WindSpeedMPH,WindSpeedGustMPH,Humidity,HourlyPrecipIn,Conditions,Clouds,dailyrainin,SoftwareType,DateUTC
2013-06-26 00:00:00,78.7,69.7,29.95,WNW,292,0.0,1.0,74,0.00,,CLR,0.00,VWS V14.01,2013-06-26 05:00:00,
2013-06-26 00:01:00,78.3,69.7,29.95,NW,315,0.0,0.0,75,0.00,,CLR,0.00,VWS V14.01,2013-06-26 05:01:00,
2013-06-26 00:06:00,78.1,69.9,29.95,NW,316,0.0,0.0,76,0.00,,CLR,0.00,VWS V14.01,2013-06-26 05:06:00,
2013-06-26 00:10:00,78.5,69.9,29.95,NW,315,0.0,3.0,75,0.00,,CLR,0.00,VWS V14.01,2013-06-26 05:10:00,
2013-06-26 00:11:00,78.0,70.2,29.95,NW,315,0.0,0.0,77,0.00,,CLR,0.00,VWS V14.01,2013-06-26 05:11:00,
2013-06-26 00:16:00,78.0,70.2,29.95,NW,316,0.0,0.0,77,0.00,,CLR,0.00,VWS V14.01,2013-06-26 05:16:00,
2013-06-26 00:20:00,78.1,69.9,29.95,NW,315,0.0,0.0,76,0.00,,CLR,0.00,VWS V14.01,2013-06-26 05:20:00,
2013-06-26 00:21:00,77.8,70.4,29.95,NW,316,0.0,0.0,78,0.00,,CLR,0.00,VWS V14.01,2013-06-26 05:21:00,
2013-06-26 00:26:00,77.6,70.2,29.95,NW,316,0.0,2.0,78,0.00,,CLR,0.00,VWS V14.01,2013-06-26 05:26:00,
2013-06-26 00:30:00,78.0,70.2,29.95,NW,316,0.0,0.0,77,0.00,,CLR,0.00,VWS V14.01,2013-06-26 05:30:00,
2013-06-26 00:31:00,77.6,70.6,29.95,WNW,299,0.0,3.0,79,0.00,,CLR,0.00,VWS V14.01,2013-06-26 05:31:00,
2013-06-26 00:36:00,77.4,70.4,29.95,WNW,299,0.0,3.0,79,0.00,,CLR,0.00,VWS V14.01,2013-06-26 05:36:00,
2013-06-26 00:40:00,77.6,70.2,29.95,NW,316,1.0,2.0,78,0.00,,CLR,0.00,VWS V14.01,2013-06-26 05:40:00,
2013-06-26 00:41:00,77.4,70.4,29.95,WNW,299,1.0,2.0,79,0.00,,CLR,0.00,VWS V14.01,2013-06-26 05:41:00,
2013-06-26 00:46:00,77.2,70.6,29.95,WNW,299,0.0,2.0,80,0.00,,CLR,0.00,VWS V14.01,2013-06-26 05:46:00,
2013-06-26 00:50:00,77.4,70.4,29.95,WNW,299,0.0,3.0,79,0.00,,CLR,0.00,VWS V14.01,2013-06-26 05:50:00,
2013-06-26 00:51:00,77.2,70.6,29.95,WNW,299,0.0,0.0,80,0.00,,CLR,0.00,VWS V14.01,2013-06-26 05:51:00,
2013-06-26 00:56:00,77.1,70.5,29.95,WNW,299,0.0,0.0,80,0.00,,CLR,0.00,VWS V14.01,2013-06-26 05:56:00,
2013-06-26 01:00:00,77.2,70.6,29.95,WNW,299,0.0,2.0,80,0.00,,CLR,0.00,VWS V14.01,2013-06-26 06:00:00,
2013-06-26 01:01:00,76.9,70.6,29.95,WNW,299,0.0,0.0,81,0.00,,CLR,0.00,VWS V14.01,2013-06-26 06:01:00,
2013-06-26 01:06:00,76.9,71.0,29.95,WNW,299,0.0,1.0,82,0.00,,CLR,0.00,VWS V14.01,2013-06-26 06:06:00,
2013-06-26 01:10:00,77.1,70.8,29.95,WNW,299,0.0,0.0,81,0.00,,CLR,0.00,VWS V14.01,2013-06-26 06:10:00,
2013-06-26 01:11:00,76.7,70.8,29.95,WNW,299,0.0,0.0,82,0.00,,CLR,0.00,VWS V14.01,2013-06-26 06:11:00,
2013-06-26 01:16:00,76.7,71.2,29.95,WNW,300,0.0,3.0,83,0.00,,CLR,0.00,VWS V14.01,2013-06-26 06:16:00,
2013-06-26 01:20:00,76.9,71.0,29.95,WNW,299,0.0,1.0,82,0.00,,CLR,0.00,VWS V14.01,2013-06-26 06:20:00,
2013-06-26 01:21:00,76.7,71.2,29.95,WNW,296,0.0,2.0,83,0.00,,CLR,0.00,VWS V14.01,2013-06-26 06:21:00,
2013-06-26 01:26:00,76.5,71.0,29.95,WNW,296,0.0,2.0,83,0.00,,CLR,0.00,VWS V14.01,2013-06-26 06:26:00,
2013-06-26 01:30:00,76.7,70.8,29.95,WNW,300,0.0,3.0,82,0.00,,CLR,0.00,VWS V14.01,2013-06-26 06:30:00,
2013-06-26 01:31:00,76.5,71.0,29.94,WNW,296,0.0,3.0,83,0.00,,CLR,0.00,VWS V14.01,2013-06-26 06:31:00,
2013-06-26 01:36:00,76.5,71.0,29.94,WNW,296,0.0,3.0,83,0.00,,CLR,0.00,VWS V14.01,2013-06-26 06:36:00,
2013-06-26 01:40:00,76.5,71.0,29.95,WNW,296,0.0,2.0,83,0.00,,CLR,0.00,VWS V14.01,2013-06-26 06:40:00,
2013-06-26 01:41:00,76.3,70.8,29.94,WNW,296,0.0,2.0,83,0.00,,CLR,0.00,VWS V14.01,2013-06-26 06:41:00,
2013-06-26 01:46:00,76.3,71.1,29.93,WNW,296,0.0,2.0,84,0.00,,CLR,0.00,VWS V14.01,2013-06-26 06:46:00,
2013-06-26 01:50:00,76.5,71.0,29.94,WNW,296,0.0,3.0,83,0.00,,CLR,0.00,VWS V14.01,2013-06-26 06:50:00,
2013-06-26 01:51:00,76.3,71.1,29.93,SSW,201,1.0,7.0,84,0.00,,CLR,0.00,VWS V14.01,2013-06-26 06:51:00,
2013-06-26 01:56:00,76.3,71.1,29.93,West,261,0.0,7.0,84,0.00,,CLR,0.00,VWS V14.01,2013-06-26 06:56:00,
2013-06-26 02:00:00,76.3,71.1,29.93,WNW,296,0.0,2.0,84,0.00,,CLR,0.00,VWS V14.01,2013-06-26 07:00:00,
2013-06-26 02:01:00,76.3,71.1,29.92,WNW,286,0.0,1.0,84,0.00,,CLR,0.00,VWS V14.01,2013-06-26 07:01:00,
2013-06-26 02:06:00,76.3,71.1,29.92,SSW,200,1.0,2.0,84,0.00,,CLR,0.00,VWS V14.01,2013-06-26 07:06:00,
2013-06-26 02:10:00,76.3,71.1,29.93,West,261,0.0,7.0,84,0.00,,CLR,0.00,VWS V14.01,2013-06-26 07:10:00,
2013-06-26 02:11:00,76.3,71.1,29.92,SSW,200,0.0,2.0,84,0.00,,CLR,0.00,VWS V14.01,2013-06-26 07:11:00,
2013-06-26 02:16:00,76.2,71.0,29.92,SW,227,0.0,3.0,84,0.00,,CLR,0.00,VWS V14.01,2013-06-26 07:16:00,
2013-06-26 02:20:00,76.3,71.1,29.92,SSW,200,0.0,2.0,84,0.00,,CLR,0.00,VWS V14.01,2013-06-26 07:20:00,
2013-06-26 02:21:00,76.2,71.0,29.92,SW,227,0.0,1.0,84,0.00,,CLR,0.00,VWS V14.01,2013-06-26 07:21:00,
2013-06-26 02:26:00,76.2,71.0,29.92,SW,227,0.0,1.0,84,0.00,,CLR,0.00,VWS V14.01,2013-06-26 07:26:00,
2013-06-26 02:30:00,76.2,71.0,29.92,SW,227,0.0,3.0,84,0.00,,CLR,0.00,VWS V14.01,2013-06-26 07:30:00,
2013-06-26 02:31:00,76.3,71.1,29.92,SW,233,3.0,3.0,84,0.00,,CLR,0.00,VWS V14.01,2013-06-26 07:31:00,
2013-06-26 02:36:00,76.3,71.1,29.92,NNE,28,2.0,5.0,84,0.00,,CLR,0.00,VWS V14.01,2013-06-26 07:36:00,
2013-06-26 02:40:00,76.2,71.0,29.92,SW,227,0.0,1.0,84,0.00,,CLR,0.00,VWS V14.01,2013-06-26 07:40:00,
2013-06-26 02:41:00,76.5,71.3,29.92,SSE,156,0.0,1.0,84,0.00,,CLR,0.00,VWS V14.01,2013-06-26 07:41:00,
2013-06-26 02:46:00,76.7,71.5,29.92,SSE,156,0.0,1.0,84,0.00,,CLR,0.00,VWS V14.01,2013-06-26 07:46:00,
2013-06-26 02:50:00,76.3,71.1,29.92,South,190,0.0,5.0,84,0.00,,CLR,0.00,VWS V14.01,2013-06-26 07:50:00,
2013-06-26 02:51:00,76.7,71.5,29.92,West,269,0.0,4.0,84,0.00,,BKN016,0.00,VWS V14.01,2013-06-26 07:51:00,
2013-06-26 02:56:00,76.9,71.3,29.92,SE,138,0.0,4.0,83,0.00,,BKN016,0.00,VWS V14.01,2013-06-26 07:56:00,
2013-06-26 03:00:00,76.7,71.5,29.92,SSE,156,0.0,1.0,84,0.00,,CLR,0.00,VWS V14.01,2013-06-26 08:00:00,
2013-06-26 03:01:00,76.9,71.3,29.92,NNE,17,0.0,3.0,83,0.00,,BKN016,0.00,VWS V14.01,2013-06-26 08:01:00,
2013-06-26 03:06:00,77.1,71.5,29.92,North,350,0.0,3.0,83,0.00,,BKN016,0.00,VWS V14.01,2013-06-26 08:06:00,
2013-06-26 03:10:00,76.9,71.3,29.92,SE,138,0.0,4.0,83,0.00,,CLR,0.00,VWS V14.01,2013-06-26 08:10:00,
2013-06-26 03:11:00,77.1,71.5,29.92,West,277,0.0,4.0,83,0.00,,BKN016,0.00,VWS V14.01,2013-06-26 08:11:00,
2013-06-26 03:16:00,77.1,71.5,29.93,West,277,0.0,4.0,83,0.00,,BKN016,0.00,VWS V14.01,2013-06-26 08:16:00,
2013-06-26 03:20:00,77.1,71.5,29.92,North,350,0.0,3.0,83,0.00,,CLR,0.00,VWS V14.01,2013-06-26 08:20:00,
2013-06-26 03:21:00,77.1,71.5,29.93,West,277,0.0,0.0,83,0.00,,BKN016,0.00,VWS V14.01,2013-06-26 08:21:00,
2013-06-26 03:26:00,76.9,71.3,29.93,West,277,0.0,0.0,83,0.00,,BKN016,0.00,VWS V14.01,2013-06-26 08:26:00,
2013-06-26 03:30:00,77.1,71.5,29.93,West,277,0.0,4.0,83,0.00,,CLR,0.00,VWS V14.01,2013-06-26 08:30:00,
2013-06-26 03:31:00,76.9,71.3,29.93,West,277,0.0,0.0,83,0.00,,BKN016,0.00,VWS V14.01,2013-06-26 08:31:00,
2013-06-26 03:36:00,76.9,71.3,29.93,West,277,0.0,0.0,83,0.00,,BKN016,0.00,VWS V14.01,2013-06-26 08:36:00,
2013-06-26 03:40:00,76.9,71.3,29.93,West,277,0.0,0.0,83,0.00,,CLR,0.00,VWS V14.01,2013-06-26 08:40:00,
2013-06-26 03:41:00,76.9,71.3,29.93,West,278,0.0,0.0,83,0.00,,BKN016,0.00,VWS V14.01,2013-06-26 08:41:00,
2013-06-26 03:46:00,76.7,71.5,29.94,West,277,0.0,0.0,84,0.00,,BKN016,0.00,VWS V14.01,2013-06-26 08:46:00,
2013-06-26 03:50:00,76.9,71.3,29.93,West,277,0.0,0.0,83,0.00,,CLR,0.00,VWS V14.01,2013-06-26 08:50:00,
2013-06-26 03:51:00,76.7,71.5,29.94,West,277,0.0,0.0,84,0.00,,BKN016,0.00,VWS V14.01,2013-06-26 08:51:00,
2013-06-26 03:56:00,76.7,71.5,29.94,WNW,292,0.0,2.0,84,0.00,,BKN016,0.00,VWS V14.01,2013-06-26 08:56:00,
2013-06-26 04:00:00,76.7,71.5,29.94,West,278,0.0,0.0,84,0.00,,CLR,0.00,VWS V14.01,2013-06-26 09:00:00,
2013-06-26 04:01:00,76.7,71.5,29.93,WNW,292,0.0,0.0,84,0.00,,BKN016,0.00,VWS V14.01,2013-06-26 09:01:00,
2013-06-26 04:06:00,76.7,71.5,29.93,WNW,292,0.0,0.0,84,0.00,,OVC016,0.00,VWS V14.01,2013-06-26 09:06:00,
2013-06-26 04:10:00,76.7,71.5,29.94,WNW,292,0.0,2.0,84,0.00,,CLR,0.00,VWS V14.01,2013-06-26 09:10:00,
2013-06-26 04:11:00,76.5,71.3,29.93,NNE,23,5.0,5.0,84,0.00,,OVC016,0.00,VWS V14.01,2013-06-26 09:11:00,
2013-06-26 04:16:00,76.5,71.3,29.93,NNE,33,0.0,5.0,84,0.00,,OVC016,0.00,VWS V14.01,2013-06-26 09:16:00,
2013-06-26 04:20:00,76.5,71.3,29.93,WNW,292,0.0,1.0,84,0.00,,CLR,0.00,VWS V14.01,2013-06-26 09:20:00,
2013-06-26 04:21:00,76.5,71.3,29.93,NNE,33,0.0,0.0,84,0.00,,OVC016,0.00,VWS V14.01,2013-06-26 09:21:00,
2013-06-26 04:26:00,76.5,71.3,29.93,NW,319,0.0,2.0,84,0.00,,OVC016,0.00,VWS V14.01,2013-06-26 09:26:00,
2013-06-26 04:30:00,76.5,71.3,29.93,NNE,33,0.0,5.0,84,0.00,,CLR,0.00,VWS V14.01,2013-06-26 09:30:00,
2013-06-26 04:31:00,76.7,71.5,29.93,NW,319,0.0,0.0,84,0.00,,OVC016,0.00,VWS V14.01,2013-06-26 09:31:00,
2013-06-26 04:36:00,76.7,71.5,29.93,NW,319,1.0,1.0,84,0.00,,OVC016,0.00,VWS V14.01,2013-06-26 09:36:00,
2013-06-26 04:40:00,76.5,71.3,29.93,NW,319,0.0,2.0,84,0.00,,CLR,0.00,VWS V14.01,2013-06-26 09:40:00,
2013-06-26 04:41:00,76.7,71.2,29.93,NW,319,0.0,0.0,83,0.00,,OVC016,0.00,VWS V14.01,2013-06-26 09:41:00,
2013-06-26 04:46:00,76.7,71.2,29.93,NW,319,0.0,0.0,83,0.00,,OVC016,0.00,VWS V14.01,2013-06-26 09:46:00,
2013-06-26 04:50:00,76.7,71.5,29.93,NW,319,0.0,1.0,84,0.00,,CLR,0.00,VWS V14.01,2013-06-26 09:50:00,
2013-06-26 04:51:00,76.7,71.5,29.93,NW,319,0.0,1.0,84,0.00,,OVC016,0.00,VWS V14.01,2013-06-26 09:51:00,
2013-06-26 04:56:00,76.7,71.2,29.93,NW,319,0.0,1.0,83,0.00,,OVC016,0.00,VWS V14.01,2013-06-26 09:56:00,
2013-06-26 05:00:00,76.7,71.5,29.93,NW,319,0.0,0.0,84,0.00,,CLR,0.00,VWS V14.01,2013-06-26 10:00:00,
2013-06-26 05:01:00,76.7,71.2,29.93,NW,319,0.0,0.0,83,0.00,,OVC016,0.00,VWS V14.01,2013-06-26 10:01:00,
2013-06-26 05:06:00,76.7,71.2,29.93,NW,319,0.0,0.0,83,0.00,,OVC026,0.00,VWS V14.01,2013-06-26 10:06:00,
2013-06-26 05:10:00,76.7,71.2,29.93,NW,319,0.0,1.0,83,0.00,,CLR,0.00,VWS V14.01,2013-06-26 10:10:00,
2013-06-26 05:11:00,76.9,71.3,29.93,NW,319,0.0,1.0,83,0.00,,OVC026,0.00,VWS V14.01,2013-06-26 10:11:00,
2013-06-26 05:16:00,76.9,71.3,29.94,NW,319,0.0,1.0,83,0.00,,OVC026,0.00,VWS V14.01,2013-06-26 10:16:00,
2013-06-26 05:20:00,76.7,71.2,29.93,NW,319,0.0,0.0,83,0.00,,CLR,0.00,VWS V14.01,2013-06-26 10:20:00,
2013-06-26 05:21:00,76.9,71.3,29.94,NW,319,0.0,1.0,83,0.00,,OVC026,0.00,VWS V14.01,2013-06-26 10:21:00,
2013-06-26 05:26:00,76.9,71.3,29.94,NW,319,0.0,1.0,83,0.00,,OVC026,0.00,VWS V14.01,2013-06-26 10:26:00,
2013-06-26 05:30:00,76.9,71.3,29.94,NW,319,0.0,1.0,83,0.00,,CLR,0.00,VWS V14.01,2013-06-26 10:30:00,
2013-06-26 05:31:00,77.1,71.5,29.94,NW,319,0.0,1.0,83,0.00,,OVC026,0.00,VWS V14.01,2013-06-26 10:31:00,
2013-06-26 05:36:00,77.1,71.5,29.94,NW,319,0.0,1.0,83,0.00,,OVC026,0.00,VWS V14.01,2013-06-26 10:36:00,
2013-06-26 05:40:00,76.9,71.3,29.94,NW,319,0.0,1.0,83,0.00,,CLR,0.00,VWS V14.01,2013-06-26 10:40:00,
2013-06-26 05:41:00,77.1,71.5,29.94,NW,319,0.0,0.0,83,0.00,,OVC026,0.00,VWS V14.01,2013-06-26 10:41:00,
2013-06-26 05:46:00,77.1,71.5,29.94,NW,319,0.0,1.0,83,0.00,,OVC026,0.00,VWS V14.01,2013-06-26 10:46:00,
2013-06-26 05:50:00,77.1,71.5,29.94,NW,319,0.0,1.0,83,0.00,,CLR,0.00,VWS V14.01,2013-06-26 10:50:00,
2013-06-26 05:51:00,77.1,71.5,29.94,NW,319,0.0,2.0,83,0.00,,OVC026,0.00,VWS V14.01,2013-06-26 10:51:00,
2013-06-26 05:56:00,77.1,71.5,29.94,NW,319,0.0,2.0,83,0.00,,OVC026,0.00,VWS V14.01,2013-06-26 10:56:00,
2013-06-26 06:00:00,77.1,71.5,29.94,NW,319,0.0,1.0,83,0.00,,CLR,0.00,VWS V14.01,2013-06-26 11:00:00,
2013-06-26 06:01:00,76.9,71.3,29.94,NW,319,0.0,0.0,83,0.00,,OVC026,0.00,VWS V14.01,2013-06-26 11:01:00,
2013-06-26 06:06:00,76.9,71.3,29.94,NW,319,0.0,1.0,83,0.00,,OVC030,0.00,VWS V14.01,2013-06-26 11:06:00,
2013-06-26 06:10:00,77.1,71.5,29.94,NW,319,0.0,2.0,83,0.00,,CLR,0.00,VWS V14.01,2013-06-26 11:10:00,
2013-06-26 06:11:00,76.9,71.3,29.94,NW,319,0.0,1.0,83,0.00,,OVC030,0.00,VWS V14.01,2013-06-26 11:11:00,
2013-06-26 06:16:00,76.9,71.7,29.95,NW,319,0.0,1.0,84,0.00,,OVC030,0.00,VWS V14.01,2013-06-26 11:16:00,
2013-06-26 06:20:00,76.9,71.3,29.94,NW,319,0.0,1.0,83,0.00,,CLR,0.00,VWS V14.01,2013-06-26 11:20:00,
2013-06-26 06:21:00,76.9,71.7,29.95,NW,319,0.0,0.0,84,0.00,,OVC030,0.00,VWS V14.01,2013-06-26 11:21:00,
2013-06-26 06:26:00,76.9,71.7,29.95,NW,319,0.0,1.0,84,0.00,,OVC030,0.00,VWS V14.01,2013-06-26 11:26:00,
2013-06-26 06:30:00,76.9,71.7,29.95,NW,319,0.0,1.0,84,0.00,,CLR,0.00,VWS V14.01,2013-06-26 11:30:00,
2013-06-26 06:31:00,76.9,71.7,29.95,NW,319,0.0,1.0,84,0.00,,OVC030,0.00,VWS V14.01,2013-06-26 11:31:00,
2013-06-26 06:36:00,76.9,71.7,29.95,NW,319,0.0,1.0,84,0.00,,OVC030,0.00,VWS V14.01,2013-06-26 11:36:00,
2013-06-26 06:40:00,76.9,71.7,29.95,NW,319,0.0,1.0,84,0.00,,CLR,0.00,VWS V14.01,2013-06-26 11:40:00,
2013-06-26 06:41:00,76.9,71.3,29.95,NW,319,0.0,0.0,83,0.00,,OVC030,0.00,VWS V14.01,2013-06-26 11:41:00,
2013-06-26 06:46:00,76.9,71.7,29.95,NW,319,0.0,0.0,84,0.00,,OVC030,0.00,VWS V14.01,2013-06-26 11:46:00,
2013-06-26 06:50:00,76.9,71.3,29.95,NW,319,0.0,1.0,83,0.00,,CLR,0.00,VWS V14.01,2013-06-26 11:50:00,
2013-06-26 06:51:00,76.9,71.3,29.95,SE,142,0.0,0.0,83,0.00,,OVC030,0.00,VWS V14.01,2013-06-26 11:51:00,
2013-06-26 06:56:00,76.9,71.3,29.95,SE,142,0.0,0.0,83,0.00,,OVC030,0.00,VWS V14.01,2013-06-26 11:56:00,
2013-06-26 07:00:00,76.9,71.7,29.95,SE,142,0.0,0.0,84,0.00,,CLR,0.00,VWS V14.01,2013-06-26 12:00:00,
2013-06-26 07:01:00,77.1,71.9,29.95,SE,142,0.0,0.0,84,0.00,,OVC030,0.00,VWS V14.01,2013-06-26 12:01:00,
2013-06-26 07:06:00,77.1,71.5,29.95,SE,142,0.0,0.0,83,0.00,,OVC030,0.00,VWS V14.01,2013-06-26 12:06:00,
2013-06-26 07:10:00,76.9,71.3,29.95,SE,142,0.0,0.0,83,0.00,,CLR,0.00,VWS V14.01,2013-06-26 12:10:00,
2013-06-26 07:11:00,77.1,71.5,29.95,SSE,147,0.0,1.0,83,0.00,,OVC030,0.00,VWS V14.01,2013-06-26 12:11:00,
2013-06-26 07:16:00,77.1,71.5,29.95,SSE,147,0.0,1.0,83,0.00,,OVC030,0.00,VWS V14.01,2013-06-26 12:16:00,
2013-06-26 07:20:00,77.1,71.5,29.95,SE,142,0.0,0.0,83,0.00,,CLR,0.00,VWS V14.01,2013-06-26 12:20:00,
2013-06-26 07:21:00,77.2,71.6,29.95,SSE,147,0.0,0.0,83,0.00,,OVC030,0.00,VWS V14.01,2013-06-26 12:21:00,
2013-06-26 07:26:00,77.2,71.3,29.95,SSE,147,0.0,0.0,82,0.00,,OVC030,0.00,VWS V14.01,2013-06-26 12:26:00,
2013-06-26 07:30:00,77.2,71.6,29.95,SSE,147,0.0,1.0,83,0.00,,CLR,0.00,VWS V14.01,2013-06-26 12:30:00,
2013-06-26 07:31:00,77.4,71.5,29.96,SSE,147,0.0,0.0,82,0.00,,OVC030,0.00,VWS V14.01,2013-06-26 12:31:00,
2013-06-26 07:36:00,77.6,71.7,29.96,SSE,147,0.0,0.0,82,0.00,,OVC030,0.00,VWS V14.01,2013-06-26 12:36:00,
2013-06-26 07:40:00,77.4,71.8,29.95,SSE,147,0.0,0.0,83,0.00,,CLR,0.00,VWS V14.01,2013-06-26 12:40:00,
2013-06-26 07:41:00,78.0,72.1,29.96,SSE,147,0.0,0.0,82,0.00,,OVC030,0.00,VWS V14.01,2013-06-26 12:41:00,
2013-06-26 07:46:00,78.1,71.8,29.97,SSE,147,0.0,0.0,81,0.00,,OVC030,0.00,VWS V14.01,2013-06-26 12:46:00,
2013-06-26 07:50:00,77.8,71.9,29.96,SSE,147,0.0,0.0,82,0.00,,CLR,0.00,VWS V14.01,2013-06-26 12:50:00,
2013-06-26 07:51:00,78.3,71.6,29.97,SSE,147,0.0,1.0,80,0.00,,OVC030,0.00,VWS V14.01,2013-06-26 12:51:00,
2013-06-26 07:56:00,78.5,71.4,29.97,SSE,147,0.0,1.0,79,0.00,,OVC030,0.00,VWS V14.01,2013-06-26 12:56:00,
2013-06-26 08:00:00,78.1,71.8,29.97,SSE,147,0.0,0.0,81,0.00,,CLR,0.00,VWS V14.01,2013-06-26 13:00:00,
2013-06-26 08:01:00,78.9,71.8,29.97,SSE,147,0.0,0.0,79,0.00,,OVC030,0.00,VWS V14.01,2013-06-26 13:01:00,
2013-06-26 08:06:00,79.1,72.0,29.97,South,175,0.0,0.0,79,0.00,,OVC028,0.00,VWS V14.01,2013-06-26 13:06:00,
2013-06-26 08:10:00,78.5,71.4,29.97,SSE,147,0.0,1.0,79,0.00,,CLR,0.00,VWS V14.01,2013-06-26 13:10:00,
2013-06-26 08:11:00,79.3,71.8,29.97,South,175,0.0,0.0,78,0.00,,OVC028,0.00,VWS V14.01,2013-06-26 13:11:00,
2013-06-26 08:16:00,79.4,71.9,29.97,South,175,0.0,0.0,78,0.00,,OVC028,0.00,VWS V14.01,2013-06-26 13:16:00,
2013-06-26 08:20:00,79.1,72.0,29.97,South,175,0.0,0.0,79,0.00,,CLR,0.00,VWS V14.01,2013-06-26 13:20:00,
2013-06-26 08:21:00,79.6,71.8,29.97,NNW,329,0.0,3.0,77,0.00,,OVC028,0.00,VWS V14.01,2013-06-26 13:21:00,
2013-06-26 08:26:00,79.8,71.9,29.97,NW,326,0.0,3.0,77,0.00,,OVC028,0.00,VWS V14.01,2013-06-26 13:26:00,
2013-06-26 08:30:00,79.4,71.9,29.97,South,176,0.0,0.0,78,0.00,,CLR,0.00,VWS V14.01,2013-06-26 13:30:00,
2013-06-26 08:31:00,80.2,71.6,29.97,NW,326,0.0,1.0,75,0.00,,OVC028,0.00,VWS V14.01,2013-06-26 13:31:00,
2013-06-26 08:36:00,80.4,71.4,29.97,NW,326,0.0,3.0,74,0.00,,OVC028,0.00,VWS V14.01,2013-06-26 13:36:00,
2013-06-26 08:40:00,79.8,71.9,29.97,NW,326,0.0,3.0,77,0.00,,CLR,0.00,VWS V14.01,2013-06-26 13:40:00,
2013-06-26 08:41:00,80.6,71.6,29.97,SW,229,0.0,3.0,74,0.00,,OVC028,0.00,VWS V14.01,2013-06-26 13:41:00,
2013-06-26 08:46:00,80.7,71.7,29.97,SW,229,0.0,3.0,74,0.00,,OVC028,0.00,VWS V14.01,2013-06-26 13:46:00,
2013-06-26 08:50:00,80.4,71.4,29.97,NNW,341,2.0,3.0,74,0.00,,CLR,0.00,VWS V14.01,2013-06-26 13:50:00,
2013-06-26 08:51:00,80.7,71.2,29.97,North,355,0.0,4.0,73,0.00,,OVC028,0.00,VWS V14.01,2013-06-26 13:51:00,
2013-06-26 08:56:00,80.7,70.8,29.97,NW,311,0.0,4.0,72,0.00,,OVC028,0.00,VWS V14.01,2013-06-26 13:56:00,
2013-06-26 09:00:00,80.7,71.7,29.97,SW,229,0.0,3.0,74,0.00,,CLR,0.00,VWS V14.01,2013-06-26 14:00:00,
2013-06-26 09:01:00,80.7,71.2,29.98,North,360,1.0,3.0,73,0.00,,OVC028,0.00,VWS V14.01,2013-06-26 14:01:00,
2013-06-26 09:06:00,80.9,71.4,29.98,North,360,0.0,3.0,73,0.00,,OVC029,0.00,VWS V14.01,2013-06-26 14:06:00,
2013-06-26 09:10:00,80.7,70.8,29.97,NW,311,1.0,4.0,72,0.00,,CLR,0.00,VWS V14.01,2013-06-26 14:10:00,
2013-06-26 09:11:00,81.1,71.6,29.98,North,360,0.0,1.0,73,0.00,,OVC029,0.00,VWS V14.01,2013-06-26 14:11:00,
2013-06-26 09:16:00,81.5,71.6,29.98,NNE,26,0.0,2.0,72,0.00,,OVC029,0.00,VWS V14.01,2013-06-26 14:16:00,
2013-06-26 09:20:00,80.9,71.8,29.98,North,360,1.0,3.0,74,0.00,,CLR,0.00,VWS V14.01,2013-06-26 14:20:00,
2013-06-26 09:21:00,82.1,71.3,29.98,NW,311,1.0,6.0,70,0.00,,OVC029,0.00,VWS V14.01,2013-06-26 14:21:00,
2013-06-26 09:26:00,82.7,71.9,29.98,WSW,248,1.0,6.0,70,0.00,,OVC029,0.00,VWS V14.01,2013-06-26 14:26:00,
2013-06-26 09:30:00,81.5,71.6,29.98,NNE,26,0.0,2.0,72,0.00,,CLR,0.00,VWS V14.01,2013-06-26 14:30:00,
2013-06-26 09:31:00,83.3,71.2,29.98,NW,313,1.0,6.0,67,0.00,,OVC029,0.00,VWS V14.01,2013-06-26 14:31:00,
2013-06-26 09:36:00,83.6,71.1,29.98,North,360,0.0,6.0,66,0.00,,OVC029,0.00,VWS V14.01,2013-06-26 14:36:00,
2013-06-26 09:40:00,82.9,72.1,29.98,WSW,248,0.0,6.0,70,0.00,,CLR,0.00,VWS V14.01,2013-06-26 14:40:00,
2013-06-26 09:41:00,83.8,71.7,29.98,North,360,0.0,3.0,67,0.00,,OVC029,0.00,VWS V14.01,2013-06-26 14:41:00,
2013-06-26 09:46:00,83.8,71.2,29.98,North,360,0.0,3.0,66,0.00,,OVC029,0.00,VWS V14.01,2013-06-26 14:46:00,
2013-06-26 09:50:00,83.6,71.1,29.98,North,360,0.0,6.0,66,0.00,,CLR,0.00,VWS V14.01,2013-06-26 14:50:00,
2013-06-26 09:51:00,84.0,71.9,29.98,North,360,0.0,1.0,67,0.00,,OVC029,0.00,VWS V14.01,2013-06-26 14:51:00,
2013-06-26 09:56:00,84.0,71.4,29.98,North,355,0.0,2.0,66,0.00,,OVC029,0.00,VWS V14.01,2013-06-26 14:56:00,
2013-06-26 10:00:00,83.8,71.7,29.98,North,360,0.0,3.0,67,0.00,,CLR,0.00,VWS V14.01,2013-06-26 15:00:00,
2013-06-26 10:01:00,83.8,71.2,29.98,North,355,2.0,2.0,66,0.00,,OVC029,0.00,VWS V14.01,2013-06-26 15:01:00,
2013-06-26 10:06:00,83.6,71.5,29.98,North,355,0.0,2.0,67,0.00,,BKN032,0.00,VWS V14.01,2013-06-26 15:06:00,
2013-06-26 10:10:00,84.0,71.4,29.98,North,355,0.0,2.0,66,0.00,,CLR,0.00,VWS V14.01,2013-06-26 15:10:00,
2013-06-26 10:11:00,83.6,71.5,29.98,West,272,1.0,1.0,67,0.00,,BKN032,0.00,VWS V14.01,2013-06-26 15:11:00,
2013-06-26 10:16:00,84.0,71.4,29.98,North,5,0.0,5.0,66,0.00,,BKN032,0.00,VWS V14.01,2013-06-26 15:16:00,
2013-06-26 10:20:00,83.6,71.5,29.98,North,355,0.0,2.0,67,0.00,,CLR,0.00,VWS V14.01,2013-06-26 15:20:00,
2013-06-26 10:21:00,84.4,70.9,29.98,North,5,0.0,2.0,64,0.00,,BKN032,0.00,VWS V14.01,2013-06-26 15:21:00,
2013-06-26 10:26:00,84.6,71.1,29.98,North,5,0.0,2.0,64,0.00,,BKN032,0.00,VWS V14.01,2013-06-26 15:26:00,
2013-06-26 10:30:00,84.2,71.6,29.98,North,5,0.0,5.0,66,0.00,,CLR,0.00,VWS V14.01,2013-06-26 15:30:00,
2013-06-26 10:31:00,84.8,70.8,29.97,SE,146,0.0,2.0,63,0.00,,BKN032,0.00,VWS V14.01,2013-06-26 15:31:00,
2013-06-26 10:36:00,85.6,72.0,29.97,SSE,147,0.0,2.0,64,0.00,,BKN032,0.00,VWS V14.01,2013-06-26 15:36:00,
2013-06-26 10:40:00,84.6,70.6,29.98,North,5,0.0,2.0,63,0.00,,CLR,0.00,VWS V14.01,2013-06-26 15:40:00,
2013-06-26 10:41:00,86.2,72.1,29.97,SSE,149,0.0,1.0,63,0.00,,BKN032,0.00,VWS V14.01,2013-06-26 15:41:00,
2013-06-26 10:46:00,86.9,71.8,29.98,SSE,163,0.0,4.0,61,0.00,,BKN032,0.00,VWS V14.01,2013-06-26 15:46:00,
2013-06-26 10:50:00,85.6,72.0,29.97,SSE,149,1.0,2.0,64,0.00,,CLR,0.00,VWS V14.01,2013-06-26 15:50:00,
2013-06-26 10:51:00,87.3,71.7,29.98,South,186,0.0,4.0,60,0.00,,BKN032,0.00,VWS V14.01,2013-06-26 15:51:00,
2013-06-26 10:56:00,87.7,72.6,29.98,South,186,0.0,4.0,61,0.00,,BKN032,0.00,VWS V14.01,2013-06-26 15:56:00,
2013-06-26 11:00:00,86.9,72.3,29.98,SSE,166,1.0,4.0,62,0.00,,CLR,0.00,VWS V14.01,2013-06-26 16:00:00,
2013-06-26 11:01:00,88.1,72.0,29.98,SE,144,0.0,3.0,59,0.00,,BKN032,0.00,VWS V14.01,2013-06-26 16:01:00,
2013-06-26 11:06:00,88.5,71.3,29.98,SSE,162,0.0,3.0,57,0.00,,BKN033,0.00,VWS V14.01,2013-06-26 16:06:00,
2013-06-26 11:10:00,87.7,71.1,29.98,South,186,0.0,4.0,58,0.00,,CLR,0.00,VWS V14.01,2013-06-26 16:10:00,
2013-06-26 11:11:00,89.0,71.8,29.98,SSE,163,0.0,2.0,57,0.00,,BKN033,0.00,VWS V14.01,2013-06-26 16:11:00,
2013-06-26 11:16:00,89.2,70.9,29.97,WSW,257,0.0,4.0,55,0.00,,BKN033,0.00,VWS V14.01,2013-06-26 16:16:00,
2013-06-26 11:20:00,88.5,71.3,29.98,SSE,162,0.0,3.0,57,0.00,,CLR,0.00,VWS V14.01,2013-06-26 16:20:00,
2013-06-26 11:21:00,88.8,71.6,29.97,WSW,252,0.0,1.0,57,0.00,,BKN033,0.00,VWS V14.01,2013-06-26 16:21:00,
2013-06-26 11:26:00,88.8,73.1,29.97,WSW,246,0.0,3.0,60,0.00,,BKN033,0.00,VWS V14.01,2013-06-26 16:26:00,
2013-06-26 11:30:00,89.2,71.5,29.97,WSW,257,0.0,4.0,56,0.00,,CLR,0.00,VWS V14.01,2013-06-26 16:30:00,
2013-06-26 11:31:00,89.2,71.5,29.97,WNW,288,1.0,3.0,56,0.00,,BKN033,0.00,VWS V14.01,2013-06-26 16:31:00,
2013-06-26 11:36:00,89.4,71.7,29.97,South,190,0.0,4.0,56,0.00,,BKN033,0.00,VWS V14.01,2013-06-26 16:36:00,
2013-06-26 11:40:00,88.8,72.1,29.97,WSW,246,0.0,3.0,58,0.00,,CLR,0.00,VWS V14.01,2013-06-26 16:40:00,
2013-06-26 11:41:00,89.4,72.2,29.97,SW,225,3.0,3.0,57,0.00,,BKN033,0.00,VWS V14.01,2013-06-26 16:41:00,
2013-06-26 11:46:00,89.6,71.3,29.97,SSW,195,0.0,4.0,55,0.00,,BKN033,0.00,VWS V14.01,2013-06-26 16:46:00,
2013-06-26 11:50:00,89.4,71.1,29.97,South,190,1.0,4.0,55,0.00,,CLR,0.00,VWS V14.01,2013-06-26 16:50:00,
2013-06-26 11:51:00,90.0,71.7,29.97,North,360,1.0,5.0,55,0.00,,BKN033,0.00,VWS V14.01,2013-06-26 16:51:00,
2013-06-26 11:56:00,90.5,72.1,29.97,North,360,1.0,5.0,55,0.00,,BKN033,0.00,VWS V14.01,2013-06-26 16:56:00,
2013-06-26 12:00:00,89.6,71.3,29.97,SSW,195,0.0,4.0,55,0.00,,CLR,0.00,VWS V14.01,2013-06-26 17:00:00,
2013-06-26 12:01:00,90.9,70.8,29.97,SSE,158,1.0,2.0,52,0.00,,BKN033,0.00,VWS V14.01,2013-06-26 17:01:00,
2013-06-26 12:06:00,91.1,71.6,29.97,ESE,121,0.0,2.0,53,0.00,,SCT035,0.00,VWS V14.01,2013-06-26 17:06:00,
2013-06-26 12:10:00,90.7,72.3,29.97,North,360,0.0,5.0,55,0.00,,CLR,0.00,VWS V14.01,2013-06-26 17:10:00,
2013-06-26 12:11:00,91.6,72.1,29.97,NW,311,0.0,3.0,53,0.00,,SCT035,0.00,VWS V14.01,2013-06-26 17:11:00,
2013-06-26 12:16:00,92.2,70.3,29.96,NW,311,0.0,3.0,49,0.00,,SCT035,0.00,VWS V14.01,2013-06-26 17:16:00,
2013-06-26 12:20:00,91.3,72.3,29.97,ESE,121,2.0,2.0,54,0.00,,CLR,0.00,VWS V14.01,2013-06-26 17:20:00,
2013-06-26 12:21:00,92.7,71.9,29.96,NW,311,0.0,1.0,51,0.00,,SCT035,0.00,VWS V14.01,2013-06-26 17:21:00,
2013-06-26 12:26:00,93.1,71.1,29.96,WSW,248,0.0,4.0,49,0.00,,SCT035,0.00,VWS V14.01,2013-06-26 17:26:00,
2013-06-26 12:30:00,92.2,70.3,29.96,NW,311,0.0,3.0,49,0.00,,CLR,0.00,VWS V14.01,2013-06-26 17:30:00,
2013-06-26 12:31:00,92.9,72.1,29.96,North,9,0.0,6.0,51,0.00,,SCT035,0.00,VWS V14.01,2013-06-26 17:31:00,
2013-06-26 12:36:00,92.9,72.1,29.96,North,351,2.0,6.0,51,0.00,,SCT035,0.00,VWS V14.01,2013-06-26 17:36:00,
2013-06-26 12:40:00,93.1,71.1,29.96,WSW,248,0.0,4.0,49,0.00,,CLR,0.00,VWS V14.01,2013-06-26 17:40:00,
2013-06-26 12:41:00,93.1,71.1,29.96,NW,316,0.0,3.0,49,0.00,,SCT035,0.00,VWS V14.01,2013-06-26 17:41:00,
2013-06-26 12:46:00,92.9,70.9,29.96,WNW,302,0.0,3.0,49,0.00,,SCT035,0.00,VWS V14.01,2013-06-26 17:46:00,
2013-06-26 12:50:00,92.9,74.4,29.96,NNW,329,1.0,6.0,55,0.00,,CLR,0.00,VWS V14.01,2013-06-26 17:50:00,
2013-06-26 12:51:00,93.1,71.7,29.96,North,355,1.0,2.0,50,0.00,,SCT035,0.00,VWS V14.01,2013-06-26 17:51:00,
2013-06-26 12:56:00,93.5,70.9,29.96,NW,310,0.0,6.0,48,0.00,,SCT035,0.00,VWS V14.01,2013-06-26 17:56:00,
2013-06-26 13:00:00,92.9,70.9,29.96,WNW,302,0.0,3.0,49,0.00,,CLR,0.00,VWS V14.01,2013-06-26 18:00:00,
2013-06-26 13:01:00,93.5,70.3,29.95,NNE,20,2.0,3.0,47,0.00,,SCT035,0.00,VWS V14.01,2013-06-26 18:01:00,
2013-06-26 13:06:00,93.5,70.3,29.95,NNE,19,0.0,3.0,47,0.00,,FEW042,0.00,VWS V14.01,2013-06-26 18:06:00,
2013-06-26 13:10:00,93.5,70.9,29.96,NW,310,0.0,6.0,48,0.00,,CLR,0.00,VWS V14.01,2013-06-26 18:10:00,
2013-06-26 13:11:00,93.5,71.5,29.95,NNE,19,0.0,2.0,49,0.00,,FEW042,0.00,VWS V14.01,2013-06-26 18:11:00,
2013-06-26 13:16:00,93.8,69.3,29.95,NNE,20,1.0,3.0,45,0.00,,FEW042,0.00,VWS V14.01,2013-06-26 18:16:00,
2013-06-26 13:20:00,93.5,70.3,29.95,NNE,19,0.0,3.0,47,0.00,,CLR,0.00,VWS V14.01,2013-06-26 18:20:00,
2013-06-26 13:22:00,94.2,70.3,29.95,NNE,20,0.0,1.0,46,0.00,,FEW042,0.00,VWS V14.01,2013-06-26 18:22:00,
2013-06-26 13:27:00,94.6,70.0,29.95,NNE,19,0.0,3.0,45,0.00,,FEW042,0.00,VWS V14.01,2013-06-26 18:27:00,
2013-06-26 13:30:00,93.8,70.5,29.95,NNE,20,0.0,3.0,47,0.00,,CLR,0.00,VWS V14.01,2013-06-26 18:30:00,
2013-06-26 13:32:00,94.9,72.2,29.95,NNE,20,0.0,2.0,48,0.00,,FEW042,0.00,VWS V14.01,2013-06-26 18:32:00,
2013-06-26 13:37:00,95.1,71.7,29.95,NNE,20,0.0,2.0,47,0.00,,FEW042,0.00,VWS V14.01,2013-06-26 18:37:00,
2013-06-26 13:40:00,94.9,70.2,29.95,NNE,19,0.0,3.0,45,0.00,,CLR,0.00,VWS V14.01,2013-06-26 18:40:00,
2013-06-26 13:42:00,95.4,71.3,29.95,NNE,20,0.0,3.0,46,0.00,,FEW042,0.00,VWS V14.01,2013-06-26 18:42:00,
2013-06-26 13:46:00,95.4,71.3,29.95,NNE,20,1.0,3.0,46,0.00,,FEW042,0.00,VWS V14.01,2013-06-26 18:46:00,
2013-06-26 13:50:00,95.1,71.7,29.95,NNE,20,0.0,2.0,47,0.00,,CLR,0.00,VWS V14.01,2013-06-26 18:50:00,
2013-06-26 13:52:00,95.4,72.6,29.95,NNE,20,1.0,3.0,48,0.00,,FEW042,0.00,VWS V14.01,2013-06-26 18:52:00,
2013-06-26 13:57:00,95.4,72.0,29.95,NNE,20,1.0,3.0,47,0.00,,FEW042,0.00,VWS V14.01,2013-06-26 18:57:00,
2013-06-26 14:00:00,95.4,71.3,29.95,NNE,20,1.0,3.0,46,0.00,,CLR,0.00,VWS V14.01,2013-06-26 19:00:00,
2013-06-26 14:02:00,95.6,70.2,29.94,East,94,1.0,1.0,44,0.00,,FEW042,0.00,VWS V14.01,2013-06-26 19:02:00,
2013-06-26 14:07:00,95.8,70.4,29.94,ESE,115,0.0,4.0,44,0.00,,CLR,0.00,VWS V14.01,2013-06-26 19:07:00,
2013-06-26 14:10:00,95.4,72.0,29.95,NNE,20,1.0,3.0,47,0.00,,CLR,0.00,VWS V14.01,2013-06-26 19:10:00,
2013-06-26 14:12:00,96.1,70.0,29.94,SE,128,0.0,2.0,43,0.00,,CLR,0.00,VWS V14.01,2013-06-26 19:12:00,
2013-06-26 14:17:00,96.1,68.6,29.93,SE,125,0.0,2.0,41,0.00,,CLR,0.00,VWS V14.01,2013-06-26 19:17:00,
2013-06-26 14:20:00,95.8,70.4,29.94,ESE,115,0.0,4.0,44,0.00,,CLR,0.00,VWS V14.01,2013-06-26 19:20:00,
2013-06-26 14:22:00,96.1,70.7,29.93,SW,227,0.0,6.0,44,0.00,,CLR,0.00,VWS V14.01,2013-06-26 19:22:00,
2013-06-26 14:27:00,96.1,68.6,29.93,SW,227,0.0,6.0,41,0.00,,CLR,0.00,VWS V14.01,2013-06-26 19:27:00,
2013-06-26 14:30:00,96.1,68.6,29.93,SE,125,0.0,2.0,41,0.00,,CLR,0.00,VWS V14.01,2013-06-26 19:30:00,
2013-06-26 14:32:00,95.8,71.7,29.93,WSW,252,1.0,4.0,46,0.00,,CLR,0.00,VWS V14.01,2013-06-26 19:32:00,
2013-06-26 14:37:00,95.6,66.7,29.93,West,267,2.0,4.0,39,0.00,,CLR,0.00,VWS V14.01,2013-06-26 19:37:00,
2013-06-26 14:40:00,96.1,67.2,29.93,SW,227,0.0,6.0,39,0.00,,CLR,0.00,VWS V14.01,2013-06-26 19:40:00,
2013-06-26 14:42:00,95.4,69.4,29.93,SSE,165,0.0,3.0,43,0.00,,CLR,0.00,VWS V14.01,2013-06-26 19:42:00,
2013-06-26 14:47:00,95.4,68.7,29.92,SSW,199,0.0,3.0,42,0.00,,CLR,0.00,VWS V14.01,2013-06-26 19:47:00,
2013-06-26 14:50:00,95.6,66.7,29.93,West,267,3.0,4.0,39,0.00,,CLR,0.00,VWS V14.01,2013-06-26 19:50:00,
2013-06-26 14:52:00,95.4,70.1,29.92,NW,309,0.0,3.0,44,0.00,,CLR,0.00,VWS V14.01,2013-06-26 19:52:00,
2013-06-26 14:57:00,95.6,67.4,29.92,NW,309,0.0,3.0,40,0.00,,CLR,0.00,VWS V14.01,2013-06-26 19:57:00,
2013-06-26 15:00:00,95.4,68.7,29.92,SSW,199,0.0,3.0,42,0.00,,CLR,0.00,VWS V14.01,2013-06-26 20:00:00,
2013-06-26 15:02:00,95.6,67.4,29.92,NW,309,0.0,2.0,40,0.00,,CLR,0.00,VWS V14.01,2013-06-26 20:02:00,
2013-06-26 15:07:00,95.4,67.3,29.92,NW,309,0.0,2.0,40,0.00,,CLR,0.00,VWS V14.01,2013-06-26 20:07:00,
2013-06-26 15:10:00,95.6,66.0,29.92,NW,309,0.0,3.0,38,0.00,,CLR,0.00,VWS V14.01,2013-06-26 20:10:00,
2013-06-26 15:12:00,95.6,66.7,29.92,NW,309,0.0,2.0,39,0.00,,CLR,0.00,VWS V14.01,2013-06-26 20:12:00,
2013-06-26 15:17:00,95.6,67.4,29.91,SSW,209,1.0,3.0,40,0.00,,CLR,0.00,VWS V14.01,2013-06-26 20:17:00,
2013-06-26 15:20:00,95.4,67.3,29.92,NW,309,0.0,2.0,40,0.00,,CLR,0.00,VWS V14.01,2013-06-26 20:20:00,
2013-06-26 15:22:00,95.6,68.9,29.91,SW,230,0.0,2.0,42,0.00,,CLR,0.00,VWS V14.01,2013-06-26 20:22:00,
2013-06-26 15:27:00,95.8,69.0,29.91,NNW,330,0.0,3.0,42,0.00,,CLR,0.00,VWS V14.01,2013-06-26 20:27:00,
2013-06-26 15:30:00,95.6,67.4,29.91,SSW,209,1.0,3.0,40,0.00,,CLR,0.00,VWS V14.01,2013-06-26 20:30:00,
2013-06-26 15:32:00,96.1,69.3,29.91,NNW,331,0.0,2.0,42,0.00,,CLR,0.00,VWS V14.01,2013-06-26 20:32:00,
2013-06-26 15:37:00,95.8,66.1,29.91,NNW,331,0.0,2.0,38,0.00,,CLR,0.00,VWS V14.01,2013-06-26 20:37:00,
2013-06-26 15:40:00,95.8,69.0,29.91,NNW,330,0.0,3.0,42,0.00,,CLR,0.00,VWS V14.01,2013-06-26 20:40:00,
2013-06-26 15:42:00,96.1,68.6,29.91,NNW,331,0.0,1.0,41,0.00,,CLR,0.00,VWS V14.01,2013-06-26 20:42:00,
2013-06-26 15:47:00,96.3,67.3,29.90,NNW,331,0.0,1.0,39,0.00,,CLR,0.00,VWS V14.01,2013-06-26 20:47:00,
2013-06-26 15:50:00,95.8,66.1,29.91,NNW,331,0.0,2.0,38,0.00,,CLR,0.00,VWS V14.01,2013-06-26 20:50:00,
2013-06-26 15:52:00,96.6,69.8,29.90,NNW,331,0.0,1.0,42,0.00,,CLR,0.00,VWS V14.01,2013-06-26 20:52:00,
2013-06-26 15:57:00,96.6,68.3,29.90,NNW,331,0.0,1.0,40,0.00,,CLR,0.00,VWS V14.01,2013-06-26 20:57:00,
2013-06-26 16:00:00,96.3,67.3,29.90,NNW,331,0.0,1.0,39,0.00,,CLR,0.00,VWS V14.01,2013-06-26 21:00:00,
2013-06-26 16:02:00,96.6,66.8,29.90,NNW,331,0.0,1.0,38,0.00,,CLR,0.00,VWS V14.01,2013-06-26 21:02:00,
2013-06-26 16:07:00,96.6,66.8,29.90,NNW,331,0.0,2.0,38,0.00,,CLR,0.00,VWS V14.01,2013-06-26 21:07:00,
2013-06-26 16:10:00,96.6,68.3,29.90,NNW,331,0.0,1.0,40,0.00,,CLR,0.00,VWS V14.01,2013-06-26 21:10:00,
2013-06-26 16:12:00,96.6,67.6,29.90,NNW,331,0.0,3.0,39,0.00,,CLR,0.00,VWS V14.01,2013-06-26 21:12:00,
2013-06-26 16:17:00,96.3,65.0,29.90,NNW,331,1.0,3.0,36,0.00,,CLR,0.00,VWS V14.01,2013-06-26 21:17:00,
2013-06-26 16:20:00,96.6,66.8,29.90,NNW,331,0.0,2.0,38,0.00,,CLR,0.00,VWS V14.01,2013-06-26 21:20:00,
2013-06-26 16:22:00,96.1,66.4,29.90,NNW,331,0.0,2.0,38,0.00,,CLR,0.00,VWS V14.01,2013-06-26 21:22:00,
2013-06-26 16:27:00,96.1,64.8,29.90,NNW,331,0.0,2.0,36,0.00,,CLR,0.00,VWS V14.01,2013-06-26 21:27:00,
2013-06-26 16:30:00,96.3,65.0,29.90,NNW,331,2.0,3.0,36,0.00,,CLR,0.00,VWS V14.01,2013-06-26 21:30:00,
2013-06-26 16:32:00,95.8,66.9,29.89,NNW,331,0.0,2.0,39,0.00,,CLR,0.00,VWS V14.01,2013-06-26 21:32:00,
2013-06-26 16:37:00,95.6,65.2,29.89,NNW,331,0.0,0.0,37,0.00,,CLR,0.00,VWS V14.01,2013-06-26 21:37:00,
2013-06-26 16:40:00,96.1,64.8,29.90,NNW,331,0.0,2.0,36,0.00,,CLR,0.00,VWS V14.01,2013-06-26 21:40:00,
2013-06-26 16:42:00,95.6,67.4,29.89,NNW,331,0.0,1.0,40,0.00,,CLR,0.00,VWS V14.01,2013-06-26 21:42:00,
2013-06-26 16:47:00,95.6,65.2,29.89,NNW,331,0.0,0.0,37,0.00,,CLR,0.00,VWS V14.01,2013-06-26 21:47:00,
2013-06-26 16:50:00,95.6,65.2,29.89,NNW,331,0.0,2.0,37,0.00,,CLR,0.00,VWS V14.01,2013-06-26 21:50:00,
2013-06-26 16:52:00,95.6,63.6,29.89,NNW,328,0.0,2.0,35,0.00,,CLR,0.00,VWS V14.01,2013-06-26 21:52:00,
2013-06-26 16:57:00,95.6,63.6,29.89,NNW,328,1.0,4.0,35,0.00,,CLR,0.00,VWS V14.01,2013-06-26 21:57:00,
2013-06-26 17:00:00,95.6,65.2,29.89,NNW,331,0.0,1.0,37,0.00,,CLR,0.00,VWS V14.01,2013-06-26 22:00:00,
2013-06-26 17:02:00,95.6,65.2,29.89,NNW,327,0.0,4.0,37,0.00,,CLR,0.00,VWS V14.01,2013-06-26 22:02:00,
2013-06-26 17:07:00,95.6,66.7,29.89,NNW,327,0.0,2.0,39,0.00,,CLR,0.00,VWS V14.01,2013-06-26 22:07:00,
2013-06-26 17:10:00,95.6,64.4,29.89,NNW,328,1.0,2.0,36,0.00,,CLR,0.00,VWS V14.01,2013-06-26 22:10:00,
2013-06-26 17:12:00,95.6,66.0,29.89,NNW,327,0.0,2.0,38,0.00,,CLR,0.00,VWS V14.01,2013-06-26 22:12:00,
2013-06-26 17:17:00,95.4,65.8,29.88,NNW,327,0.0,0.0,38,0.00,,CLR,0.00,VWS V14.01,2013-06-26 22:17:00,
2013-06-26 17:20:00,95.6,66.0,29.89,NNW,327,0.0,4.0,38,0.00,,CLR,0.00,VWS V14.01,2013-06-26 22:20:00,
2013-06-26 17:22:00,95.4,65.0,29.88,NNW,327,0.0,1.0,37,0.00,,CLR,0.00,VWS V14.01,2013-06-26 22:22:00,
2013-06-26 17:27:00,95.4,65.0,29.88,NNW,327,0.0,1.0,37,0.00,,CLR,0.00,VWS V14.01,2013-06-26 22:27:00,
2013-06-26 17:30:00,95.6,66.0,29.88,NNW,327,0.0,2.0,38,0.00,,CLR,0.00,VWS V14.01,2013-06-26 22:30:00,
2013-06-26 17:32:00,95.1,64.8,29.88,NNW,330,0.0,2.0,37,0.00,,CLR,0.00,VWS V14.01,2013-06-26 22:32:00,
2013-06-26 17:37:00,95.1,64.8,29.88,NNW,330,0.0,0.0,37,0.00,,CLR,0.00,VWS V14.01,2013-06-26 22:37:00,
2013-06-26 17:40:00,95.4,64.2,29.88,NNW,327,0.0,2.0,36,0.00,,CLR,0.00,VWS V14.01,2013-06-26 22:40:00,
2013-06-26 17:42:00,95.1,63.2,29.88,NNW,330,0.0,1.0,35,0.00,,CLR,0.00,VWS V14.01,2013-06-26 22:42:00,
2013-06-26 17:47:00,95.1,64.8,29.87,NNW,330,0.0,1.0,37,0.00,,CLR,0.00,VWS V14.01,2013-06-26 22:47:00,
2013-06-26 17:50:00,95.1,64.0,29.88,NNW,330,0.0,2.0,36,0.00,,CLR,0.00,VWS V14.01,2013-06-26 22:50:00,
2013-06-26 17:52:00,95.1,66.3,29.87,NNW,330,0.0,1.0,39,0.00,,CLR,0.00,VWS V14.01,2013-06-26 22:52:00,
2013-06-26 17:57:00,94.9,63.0,29.87,WSW,253,0.0,0.0,35,0.00,,CLR,0.00,VWS V14.01,2013-06-26 22:57:00,
2013-06-26 18:00:00,95.1,64.8,29.87,NNW,330,0.0,2.0,37,0.00,,CLR,0.00,VWS V14.01,2013-06-26 23:00:00,
2013-06-26 18:02:00,94.9,63.8,29.87,WSW,253,0.0,1.0,36,0.00,,CLR,0.00,VWS V14.01,2013-06-26 23:02:00,
2013-06-26 18:07:00,94.9,65.3,29.87,West,271,1.0,2.0,38,0.00,,CLR,0.00,VWS V14.01,2013-06-26 23:07:00,
2013-06-26 18:10:00,94.9,63.0,29.87,WSW,253,0.0,5.0,35,0.00,,CLR,0.00,VWS V14.01,2013-06-26 23:10:00,
2013-06-26 18:12:00,94.6,64.3,29.87,West,271,0.0,2.0,37,0.00,,CLR,0.00,VWS V14.01,2013-06-26 23:12:00,
2013-06-26 18:17:00,94.4,65.7,29.87,WNW,284,0.0,0.0,39,0.00,,CLR,0.00,VWS V14.01,2013-06-26 23:17:00,
2013-06-26 18:20:00,94.9,65.3,29.87,WSW,253,0.0,1.0,38,0.00,,CLR,0.00,VWS V14.01,2013-06-26 23:20:00,
2013-06-26 18:22:00,94.4,64.9,29.87,SW,236,0.0,3.0,38,0.00,,CLR,0.00,VWS V14.01,2013-06-26 23:22:00,
2013-06-26 18:27:00,94.2,64.0,29.87,SW,234,0.0,1.0,37,0.00,,CLR,0.00,VWS V14.01,2013-06-26 23:27:00,
2013-06-26 18:30:00,94.4,65.7,29.87,WNW,284,0.0,2.0,39,0.00,,CLR,0.00,VWS V14.01,2013-06-26 23:30:00,
2013-06-26 18:32:00,94.2,64.7,29.87,West,267,0.0,4.0,38,0.00,,CLR,0.00,VWS V14.01,2013-06-26 23:32:00,
2013-06-26 18:37:00,94.0,64.6,29.87,West,267,0.0,0.0,38,0.00,,CLR,0.00,VWS V14.01,2013-06-26 23:37:00,
2013-06-26 18:40:00,94.2,65.5,29.87,SW,234,0.0,3.0,39,0.00,,CLR,0.00,VWS V14.01,2013-06-26 23:40:00,
2013-06-26 18:42:00,93.8,65.8,29.87,West,265,0.0,3.0,40,0.00,,CLR,0.00,VWS V14.01,2013-06-26 23:42:00,
2013-06-26 18:47:00,93.5,66.3,29.86,West,265,0.0,0.0,41,0.00,,CLR,0.00,VWS V14.01,2013-06-26 23:47:00,
2013-06-26 18:50:00,94.0,64.6,29.87,West,267,0.0,4.0,38,0.00,,CLR,0.00,VWS V14.01,2013-06-26 23:50:00,
2013-06-26 18:52:00,93.5,65.6,29.86,West,265,0.0,1.0,40,0.00,,CLR,0.00,VWS V14.01,2013-06-26 23:52:00,
2013-06-26 18:57:00,93.3,65.4,29.86,West,265,0.0,0.0,40,0.00,,CLR,0.00,VWS V14.01,2013-06-26 23:57:00,
2013-06-26 19:00:00,93.5,64.8,29.86,West,265,0.0,3.0,39,0.00,,CLR,0.00,VWS V14.01,2013-06-27 00:00:00,
2013-06-26 19:02:00,93.1,64.5,29.87,West,265,0.0,2.0,39,0.00,,CLR,0.00,VWS V14.01,2013-06-27 00:02:00,
2013-06-26 19:07:00,93.1,64.5,29.87,West,265,0.0,2.0,39,0.00,,CLR,0.00,VWS V14.01,2013-06-27 00:07:00,
2013-06-26 19:10:00,93.3,65.4,29.86,West,265,0.0,1.0,40,0.00,,CLR,0.00,VWS V14.01,2013-06-27 00:10:00,
2013-06-26 19:12:00,92.9,66.4,29.87,West,265,0.0,2.0,42,0.00,,CLR,0.00,VWS V14.01,2013-06-27 00:12:00,
2013-06-26 19:17:00,92.7,65.6,29.87,West,265,0.0,0.0,41,0.00,,CLR,0.00,VWS V14.01,2013-06-27 00:17:00,
2013-06-26 19:20:00,93.1,65.9,29.87,West,265,2.0,3.0,41,0.00,,CLR,0.00,VWS V14.01,2013-06-27 00:20:00,
2013-06-26 19:22:00,92.4,62.4,29.87,NNW,327,0.0,2.0,37,0.00,,CLR,0.00,VWS V14.01,2013-06-27 00:22:00,
2013-06-26 19:27:00,92.2,63.7,29.87,NNW,327,0.0,0.0,39,0.00,,CLR,0.00,VWS V14.01,2013-06-27 00:27:00,
2013-06-26 19:30:00,92.7,63.4,29.87,West,265,0.0,2.0,38,0.00,,CLR,0.00,VWS V14.01,2013-06-27 00:30:00,
2013-06-26 19:32:00,92.2,64.4,29.87,NNW,327,0.0,1.0,40,0.00,,CLR,0.00,VWS V14.01,2013-06-27 00:32:00,
2013-06-26 19:37:00,92.0,64.9,29.87,NNW,327,0.0,0.0,41,0.00,,CLR,0.00,VWS V14.01,2013-06-27 00:37:00,
2013-06-26 19:40:00,92.4,63.1,29.87,NNW,327,0.0,2.0,38,0.00,,CLR,0.00,VWS V14.01,2013-06-27 00:40:00,
2013-06-26 19:42:00,91.8,64.8,29.87,NNW,327,0.0,0.0,41,0.00,,CLR,0.00,VWS V14.01,2013-06-27 00:42:00,
2013-06-26 19:47:00,91.6,65.3,29.87,NNW,327,0.0,0.0,42,0.00,,CLR,0.00,VWS V14.01,2013-06-27 00:47:00,
2013-06-26 19:50:00,92.0,64.9,29.87,NNW,327,0.0,1.0,41,0.00,,CLR,0.00,VWS V14.01,2013-06-27 00:50:00,
2013-06-26 19:52:00,91.3,65.0,29.87,NNW,327,0.0,0.0,42,0.00,,CLR,0.00,VWS V14.01,2013-06-27 00:52:00,
2013-06-26 19:57:00,91.1,64.8,29.87,NW,326,0.0,2.0,42,0.00,,CLR,0.00,VWS V14.01,2013-06-27 00:57:00,
2013-06-26 20:00:00,91.6,65.3,29.87,NNW,327,0.0,1.0,42,0.00,,CLR,0.00,VWS V14.01,2013-06-27 01:00:00,
2013-06-26 20:02:00,90.9,65.3,29.87,NW,326,0.0,2.0,43,0.00,,CLR,0.00,VWS V14.01,2013-06-27 01:02:00,
2013-06-26 20:07:00,90.7,65.2,29.87,NW,321,0.0,0.0,43,0.00,,CLR,0.00,VWS V14.01,2013-06-27 01:07:00,
2013-06-26 20:10:00,91.1,65.5,29.87,NW,326,2.0,2.0,43,0.00,,CLR,0.00,VWS V14.01,2013-06-27 01:10:00,
2013-06-26 20:12:00,90.5,65.0,29.87,NW,316,0.0,1.0,43,0.00,,CLR,0.00,VWS V14.01,2013-06-27 01:12:00,
2013-06-26 20:17:00,90.2,64.7,29.88,NW,316,0.0,1.0,43,0.00,,CLR,0.00,VWS V14.01,2013-06-27 01:17:00,
2013-06-26 20:20:00,90.7,65.2,29.87,NW,321,0.0,2.0,43,0.00,,CLR,0.00,VWS V14.01,2013-06-27 01:20:00,
2013-06-26 20:22:00,90.0,64.5,29.88,NW,316,0.0,1.0,43,0.00,,CLR,0.00,VWS V14.01,2013-06-27 01:22:00,
2013-06-26 20:27:00,89.8,65.0,29.88,NW,316,0.0,0.0,44,0.00,,CLR,0.00,VWS V14.01,2013-06-27 01:27:00,
2013-06-26 20:30:00,90.2,64.7,29.88,NW,316,0.0,1.0,43,0.00,,CLR,0.00,VWS V14.01,2013-06-27 01:30:00,
2013-06-26 20:32:00,89.6,64.8,29.89,NW,316,0.0,1.0,44,0.00,,CLR,0.00,VWS V14.01,2013-06-27 01:32:00,
2013-06-26 20:37:00,89.4,64.0,29.89,NW,315,0.0,0.0,43,0.00,,CLR,0.00,VWS V14.01,2013-06-27 01:37:00,
2013-06-26 20:40:00,89.8,64.3,29.88,NW,316,0.0,1.0,43,0.00,,CLR,0.00,VWS V14.01,2013-06-27 01:40:00,
2013-06-26 20:42:00,89.2,64.5,29.89,NW,315,0.0,0.0,44,0.00,,CLR,0.00,VWS V14.01,2013-06-27 01:42:00,
2013-06-26 20:47:00,88.8,64.7,29.89,NW,315,0.0,0.0,45,0.00,,CLR,0.00,VWS V14.01,2013-06-27 01:47:00,
2013-06-26 20:50:00,89.4,64.6,29.89,NW,315,0.0,1.0,44,0.00,,CLR,0.00,VWS V14.01,2013-06-27 01:50:00,
2013-06-26 20:52:00,88.5,64.5,29.89,NW,315,0.0,1.0,45,0.00,,CLR,0.00,VWS V14.01,2013-06-27 01:52:00,
2013-06-26 20:57:00,88.3,63.7,29.89,NW,315,0.0,0.0,44,0.00,,CLR,0.00,VWS V14.01,2013-06-27 01:57:00,
2013-06-26 21:00:00,89.0,64.3,29.89,NW,315,0.0,0.0,44,0.00,,CLR,0.00,VWS V14.01,2013-06-27 02:00:00,
2013-06-26 21:02:00,87.9,63.3,29.89,NW,315,0.0,0.0,44,0.00,,CLR,0.00,VWS V14.01,2013-06-27 02:02:00,
2013-06-26 21:07:00,87.7,64.4,29.89,NW,315,0.0,0.0,46,0.00,,CLR,0.00,VWS V14.01,2013-06-27 02:07:00,
2013-06-26 21:10:00,88.3,63.7,29.89,NW,315,0.0,1.0,44,0.00,,CLR,0.00,VWS V14.01,2013-06-27 02:10:00,
2013-06-26 21:12:00,87.5,63.6,29.89,NW,315,0.0,0.0,45,0.00,,CLR,0.00,VWS V14.01,2013-06-27 02:12:00,
2013-06-26 21:17:00,87.3,64.0,29.90,NW,315,0.0,0.0,46,0.00,,CLR,0.00,VWS V14.01,2013-06-27 02:17:00,
2013-06-26 21:20:00,87.7,63.7,29.89,NW,315,0.0,0.0,45,0.00,,CLR,0.00,VWS V14.01,2013-06-27 02:20:00,
2013-06-26 21:22:00,87.1,64.4,29.90,NW,315,0.0,0.0,47,0.00,,CLR,0.00,VWS V14.01,2013-06-27 02:22:00,
2013-06-26 21:27:00,86.7,65.3,29.90,NW,315,0.0,0.0,49,0.00,,CLR,0.00,VWS V14.01,2013-06-27 02:27:00,
2013-06-26 21:30:00,87.3,64.0,29.90,NW,315,0.0,0.0,46,0.00,,CLR,0.00,VWS V14.01,2013-06-27 02:30:00,
2013-06-26 21:32:00,86.5,65.1,29.90,NW,315,0.0,0.0,49,0.00,,CLR,0.00,VWS V14.01,2013-06-27 02:32:00,
2013-06-26 21:37:00,86.2,66.5,29.90,NW,315,0.0,0.0,52,0.00,,CLR,0.00,VWS V14.01,2013-06-27 02:37:00,
2013-06-26 21:40:00,86.7,64.7,29.90,NW,315,0.0,0.0,48,0.00,,CLR,0.00,VWS V14.01,2013-06-27 02:40:00,
2013-06-26 21:42:00,86.0,66.9,29.90,NW,315,0.0,0.0,53,0.00,,CLR,0.00,VWS V14.01,2013-06-27 02:42:00,
2013-06-26 21:47:00,85.8,66.7,29.91,NW,315,0.0,0.0,53,0.00,,CLR,0.00,VWS V14.01,2013-06-27 02:47:00,
2013-06-26 21:50:00,86.2,66.0,29.90,NW,315,0.0,0.0,51,0.00,,CLR,0.00,VWS V14.01,2013-06-27 02:50:00,
2013-06-26 21:52:00,85.6,67.6,29.91,NNW,337,0.0,3.0,55,0.00,,CLR,0.00,VWS V14.01,2013-06-27 02:52:00,
2013-06-26 21:57:00,85.4,67.9,29.91,NNE,13,0.0,0.0,56,0.00,,CLR,0.00,VWS V14.01,2013-06-27 02:57:00,
2013-06-26 22:00:00,85.8,67.2,29.91,NW,315,0.0,1.0,54,0.00,,CLR,0.00,VWS V14.01,2013-06-27 03:00:00,
2013-06-26 22:02:00,85.2,68.3,29.92,NNE,13,0.0,0.0,57,0.00,,CLR,0.00,VWS V14.01,2013-06-27 03:02:00,
2013-06-26 22:07:00,85.0,68.1,29.92,SSE,148,0.0,2.0,57,0.00,,CLR,0.00,VWS V14.01,2013-06-27 03:07:00,
2013-06-26 22:10:00,85.4,67.9,29.91,NNE,13,0.0,3.0,56,0.00,,CLR,0.00,VWS V14.01,2013-06-27 03:10:00,
2013-06-26 22:12:00,84.8,67.9,29.92,SSW,200,0.0,2.0,57,0.00,,CLR,0.00,VWS V14.01,2013-06-27 03:12:00,
2013-06-26 22:17:00,84.6,68.2,29.92,South,186,1.0,1.0,58,0.00,,CLR,0.00,VWS V14.01,2013-06-27 03:17:00,
2013-06-26 22:20:00,85.0,68.1,29.92,West,275,0.0,3.0,57,0.00,,CLR,0.00,VWS V14.01,2013-06-27 03:20:00,
2013-06-26 22:22:00,84.4,69.0,29.92,South,186,0.0,1.0,60,0.00,,CLR,0.00,VWS V14.01,2013-06-27 03:22:00,
2013-06-26 22:27:00,84.2,68.8,29.92,SW,235,0.0,0.0,60,0.00,,CLR,0.00,VWS V14.01,2013-06-27 03:27:00,
2013-06-26 22:30:00,84.6,68.7,29.92,South,186,0.0,2.0,59,0.00,,CLR,0.00,VWS V14.01,2013-06-27 03:30:00,
2013-06-26 22:32:00,84.0,69.1,29.93,SW,235,0.0,0.0,61,0.00,,CLR,0.00,VWS V14.01,2013-06-27 03:32:00,
2013-06-26 22:37:00,83.6,68.7,29.93,West,273,0.0,3.0,61,0.00,,CLR,0.00,VWS V14.01,2013-06-27 03:37:00,
2013-06-26 22:40:00,84.2,68.8,29.92,SW,235,0.0,3.0,60,0.00,,CLR,0.00,VWS V14.01,2013-06-27 03:40:00,
2013-06-26 22:42:00,83.5,69.1,29.93,WSW,241,0.0,3.0,62,0.00,,CLR,0.00,VWS V14.01,2013-06-27 03:42:00,
2013-06-26 22:47:00,83.3,69.4,29.94,WSW,244,0.0,0.0,63,0.00,,CLR,0.00,VWS V14.01,2013-06-27 03:47:00,
2013-06-26 22:50:00,83.8,68.9,29.93,West,274,3.0,3.0,61,0.00,,CLR,0.00,VWS V14.01,2013-06-27 03:50:00,
2013-06-26 22:52:00,83.1,69.7,29.94,NE,44,0.0,5.0,64,0.00,,CLR,0.00,VWS V14.01,2013-06-27 03:52:00,
2013-06-26 22:57:00,82.9,69.9,29.94,North,355,1.0,5.0,65,0.00,,CLR,0.00,VWS V14.01,2013-06-27 03:57:00,
2013-06-26 23:00:00,83.3,69.4,29.94,WSW,244,0.0,3.0,63,0.00,,CLR,0.00,VWS V14.01,2013-06-27 04:00:00,
2013-06-26 23:01:00,82.7,69.8,29.94,North,355,0.0,5.0,65,0.00,,CLR,0.00,VWS V14.01,2013-06-27 04:01:00,
2013-06-26 23:06:00,82.5,70.4,29.95,North,355,1.0,5.0,67,0.00,,CLR,0.00,VWS V14.01,2013-06-27 04:06:00,
2013-06-26 23:10:00,82.9,69.9,29.94,NE,44,0.0,5.0,65,0.00,,CLR,0.00,VWS V14.01,2013-06-27 04:10:00,
2013-06-26 23:11:00,82.1,70.1,29.95,North,355,0.0,0.0,67,0.00,,CLR,0.00,VWS V14.01,2013-06-27 04:11:00,
2013-06-26 23:16:00,81.9,70.3,29.95,North,355,0.0,2.0,68,0.00,,CLR,0.00,VWS V14.01,2013-06-27 04:16:00,
2013-06-26 23:20:00,82.3,70.2,29.95,North,355,0.0,5.0,67,0.00,,CLR,0.00,VWS V14.01,2013-06-27 04:20:00,
2013-06-26 23:21:00,81.7,70.6,29.95,North,355,0.0,3.0,69,0.00,,CLR,0.00,VWS V14.01,2013-06-27 04:21:00,
2013-06-26 23:26:00,81.5,70.8,29.95,North,355,1.0,3.0,70,0.00,,CLR,0.00,VWS V14.01,2013-06-27 04:26:00,
2013-06-26 23:30:00,81.9,70.3,29.95,North,355,0.0,2.0,68,0.00,,CLR,0.00,VWS V14.01,2013-06-27 04:30:00,
2013-06-26 23:31:00,81.3,70.6,29.96,North,355,0.0,1.0,70,0.00,,CLR,0.00,VWS V14.01,2013-06-27 04:31:00,
2013-06-26 23:36:00,81.1,70.8,29.96,North,355,0.0,1.0,71,0.00,,CLR,0.00,VWS V14.01,2013-06-27 04:36:00,
2013-06-26 23:40:00,81.5,70.8,29.95,North,355,0.0,3.0,70,0.00,,CLR,0.00,VWS V14.01,2013-06-27 04:40:00,
2013-06-26 23:41:00,80.9,71.0,29.96,WNW,295,1.0,4.0,72,0.00,,CLR,0.00,VWS V14.01,2013-06-27 04:41:00,
2013-06-26 23:46:00,80.7,70.8,29.96,WNW,295,0.0,4.0,72,0.00,,CLR,0.00,VWS V14.01,2013-06-27 04:46:00,
2013-06-26 23:50:00,81.1,70.8,29.96,North,355,0.0,1.0,71,0.00,,CLR,0.00,VWS V14.01,2013-06-27 04:50:00,
2013-06-26 23:51:00,80.6,71.2,29.96,WNW,295,0.0,0.0,73,0.00,,CLR,0.00,VWS V14.01,2013-06-27 04:51:00,
2013-06-26 23:56:00,80.4,71.4,29.96,WNW,295,0.0,2.0,74,0.00,,CLR,0.00,VWS V14.01,2013-06-27 04:56:00,